Погода в Русском

Россия / Смоленская область     53°51′35″N   32°16′24″E
темп.,
°C
ветер,
м/с
пор.,
м/с
влажн.,
%
обл.,
%
осадки,
мм/ч
давл.,
гПа
погр.,
м
8 мая, сб
сб800:00+8ю51195100 3.6 1007748
03:00+8ююв2598100 3.6 1005128
06:00+8ссз0098100 0.0 100559
09:00+8ссз4694100 0.1 1005459
12:00+7ссз5791100 0.6 1006965
15:00+8ссз61079100 1.3 10071225
18:00+8сз61070100 0.8 10081286
21:00+5сз61279100 0.9 1011866
9 мая, вс
вс900:00+3зсз41182100 0.0 1013449
03:00+2зсз513805 0.0 1016446
06:00+1зсз413830 0.0 1018536
09:00+6сз59595 0.0 10201253
12:00+10сз68435 0.0 10222061
15:00+11сз5739100 0.0 10222507
18:00+11сз464917 0.0 10242089
21:00+5зсз22695 0.0 102627
10 мая, пн
пн1000:00+4з11645 0.0 102710
03:00+3ююз22645 0.0 102911
06:00+3ю22685 0.0 103040
09:00+10ююз34555 0.0 1030419
12:00+14ююз33485 0.0 10301281
15:00+15ююз3345100 0.0 10291521
18:00+15ю22504 0.0 10291283
21:00+9юв22670 0.0 102910
11 мая, вт
вт1100:00+7юв22703 0.0 103012
03:00+6вюв22745 0.0 103035
06:00+6вюв237568 0.0 103042
09:00+12в355997 0.0 1029419
12:00+16в454525 0.0 10281212
15:00+18в454048 0.0 10261382
18:00+17в4654100 0.0 1026804
21:00+10в39780 0.0 1026159
12 мая, ср
ср1200:00+9в37850 0.0 1025125
03:00+8св36905 0.0 102596
06:00+9св411845 0.0 1023270
09:00+14в6107283 0.0 1022748
12:00+12в478283 0.0 1023590
15:00+17вюв595262 0.0 10211959
18:00+16в376396 0.0 1020293
21:00+11всв388786 0.1 1020184